M I D A S
Marine Information and Data Acquisition System
Tripno 684 of the Zeeleeuw from 2004-04-19 06:35:39 to 2004-04-19 14:55:05
Back to CruiseResearch ActivitiesStationsMapUnderway DataData graphs

EquipmentUnitsComments
TimeDGPSUTC
LatitudeDGPSDM.mWGS84
LongitudeDGPSDM.mWGS84
SpeedMeteo Stationm/sRelative wind speed
DirectionMeteo StationdegRelative wind direction
TemperatureMeteo Stationdeg CelciusAir temperature
PressureMeteo StationPaAtmospheric pressure
HumidityMeteo Station%Relative humidity
Missing or incorrect values are displayed as -999
Metereological data collected by the RV Zeeleeuw from 2004-04-19 06:35:39 to 2004-04-19 14:55:05
                                                                                    Next 1000 lines
Time Latitude Longitude Speed Direction Temperature Pressure Humidity
2004-04-19 06:35:45 51°13.649 2°55.911 1.4 128 5.9 99050 81
2004-04-19 06:35:50 51°13.652 2°55.901 1.8 76 5.9 99050 81
2004-04-19 06:35:55 51°13.654 2°55.89 4.3 95 5.9 99050 81
2004-04-19 06:36:00 51°13.657 2°55.879 3.4 102 5.9 99050 81
2004-04-19 06:36:05 51°13.659 2°55.869 4.3 118 5.9 99060 81
2004-04-19 06:36:10 51°13.661 2°55.857 4.6 88 5.9 99060 81
2004-04-19 06:36:15 51°13.662 2°55.846 4.5 135 5.9 99060 81
2004-04-19 06:36:20 51°13.664 2°55.835 4 157 5.9 99060 81
2004-04-19 06:36:25 51°13.664 2°55.823 4.5 148 5.9 99060 81
2004-04-19 06:36:30 51°13.665 2°55.812 4.8 114 5.9 99060 81
2004-04-19 06:36:34 51°13.666 2°55.804 5.1 120 5.9 99060 81
2004-04-19 06:36:40 51°13.667 2°55.793 2.1 106 5.9 99060 81
2004-04-19 06:36:45 51°13.667 2°55.786 1.7 110 5.9 99050 81
2004-04-19 06:36:49 51°13.668 2°55.782 3 127 5.9 99050 81
2004-04-19 06:36:54 51°13.668 2°55.777 2.9 125 5.9 99060 81
2004-04-19 06:36:58 51°13.668 2°55.774 2.7 107 5.9 99060 81
2004-04-19 06:37:04 51°13.668 2°55.77 3.6 119 5.9 99060 81
2004-04-19 06:37:09 51°13.668 2°55.768 4.3 138 5.9 99060 81
2004-04-19 06:37:14 51°13.668 2°55.767 3.5 145 5.9 99050 81
2004-04-19 06:37:18 51°13.669 2°55.766 3.2 139 5.9 99050 81
2004-04-19 06:37:24 51°13.67 2°55.767 3.8 126 5.9 99050 81
2004-04-19 06:37:29 51°13.672 2°55.768 3.5 143 5.9 99050 81
2004-04-19 06:37:34 51°13.674 2°55.769 3.2 144 5.9 99060 81
2004-04-19 06:37:39 51°13.677 2°55.771 3 144 5.9 99060 81
2004-04-19 06:37:44 51°13.68 2°55.772 2.7 169 5.9 99060 81
2004-04-19 06:37:49 51°13.684 2°55.772 2.1 147 5.9 99060 81
2004-04-19 06:37:54 51°13.688 2°55.772 1.3 159 5.9 99060 81
2004-04-19 06:37:59 51°13.693 2°55.77 1.1 140 5.9 99060 81
2004-04-19 06:38:04 51°13.698 2°55.768 0.8 132 5.9 99060 81
2004-04-19 06:38:09 51°13.704 2°55.764 0.8 125 5.9 99060 81
2004-04-19 06:38:14 51°13.71 2°55.759 0.7 130 5.9 99060 81
2004-04-19 06:38:18 51°13.714 2°55.754 0.4 110 5.9 99060 81
2004-04-19 06:38:24 51°13.72 2°55.747 0.6 217 5.9 99060 81
2004-04-19 06:38:29 51°13.725 2°55.741 0.8 235 5.9 99060 81
2004-04-19 06:38:34 51°13.731 2°55.735 1 255 5.9 99060 81
2004-04-19 06:38:39 51°13.736 2°55.728 2.7 230 5.9 99060 81
2004-04-19 06:38:45 51°13.744 2°55.721 2 231 5.9 99060 81
2004-04-19 06:38:48 51°13.748 2°55.717 1.8 240 5.9 99060 81
2004-04-19 06:38:54 51°13.756 2°55.708 2.2 223 6 99070 81
2004-04-19 06:38:58 51°13.761 2°55.701 1.4 253 6 99070 81
2004-04-19 06:39:04 51°13.77 2°55.69 1.7 239 5.9 99070 81
2004-04-19 06:39:09 51°13.777 2°55.682 1.8 234 5.9 99070 81
2004-04-19 06:39:14 51°13.785 2°55.673 1.4 233 6 99060 81
2004-04-19 06:39:19 51°13.794 2°55.665 1.4 213 6 99060 81
2004-04-19 06:39:24 51°13.802 2°55.656 1.4 194 5.9 99060 81
2004-04-19 06:39:29 51°13.811 2°55.648 1.8 208 5.9 99060 81
2004-04-19 06:39:34 51°13.821 2°55.64 1.7 208 5.9 99060 81
2004-04-19 06:39:39 51°13.83 2°55.632 0.8 210 5.9 99060 81
2004-04-19 06:39:44 51°13.84 2°55.624 0.9 194 6 99060 81
2004-04-19 06:39:49 51°13.85 2°55.617 1.3 269 6 99060 81
2004-04-19 06:39:54 51°13.86 2°55.609 2.2 250 6 99060 81
2004-04-19 06:39:58 51°13.868 2°55.603 4.1 246 6 99060 81
2004-04-19 06:40:04 51°13.88 2°55.595 4 271 6 99070 81
2004-04-19 06:40:09 51°13.89 2°55.587 2 223 6 99070 81
2004-04-19 06:40:14 51°13.901 2°55.58 2.1 212 6 99070 81
2004-04-19 06:40:20 51°13.913 2°55.571 2.7 249 6 99070 81
2004-04-19 06:40:24 51°13.922 2°55.565 2.2 246 6 99070 81
2004-04-19 06:40:29 51°13.932 2°55.557 2.8 234 6 99070 81
2004-04-19 06:40:34 51°13.943 2°55.549 2 211 6 99060 81
2004-04-19 06:40:38 51°13.951 2°55.543 2.4 208 6 99060 81
2004-04-19 06:40:44 51°13.964 2°55.535 1.9 208 6 99070 81
2004-04-19 06:40:49 51°13.975 2°55.527 2 204 6 99070 81
2004-04-19 06:40:54 51°13.986 2°55.52 1.8 227 6 99070 81
2004-04-19 06:41:00 51°13.999 2°55.511 2 233 6 99070 81
2004-04-19 06:41:04 51°14.007 2°55.505 1.4 234 6 99070 81
2004-04-19 06:41:09 51°14.019 2°55.498 2.2 270 6 99070 81
2004-04-19 06:41:14 51°14.03 2°55.49 1.6 259 6 99070 81
2004-04-19 06:41:18 51°14.039 2°55.484 1.8 292 6 99070 81
2004-04-19 06:41:24 51°14.052 2°55.474 2 271 6 99070 81
2004-04-19 06:41:29 51°14.063 2°55.466 2.7 311 6 99070 81
2004-04-19 06:41:34 51°14.075 2°55.458 3.5 228 6 99070 81
2004-04-19 06:41:38 51°14.084 2°55.451 2.7 302 6 99070 81
2004-04-19 06:41:45 51°14.099 2°55.439 3.1 284 6 99070 81
2004-04-19 06:41:49 51°14.109 2°55.432 3.8 296 6 99070 81
2004-04-19 06:41:54 51°14.12 2°55.423 5.2 292 6 99070 81
2004-04-19 06:41:59 51°14.131 2°55.414 3.7 276 6 99070 81
2004-04-19 06:42:04 51°14.142 2°55.404 4.6 296 6.1 99070 81
2004-04-19 06:42:09 51°14.154 2°55.394 4.2 272 6.1 99070 81
2004-04-19 06:42:14 51°14.165 2°55.383 5.6 272 6.1 99070 81
2004-04-19 06:42:19 51°14.176 2°55.373 3.3 258 6.1 99070 81
2004-04-19 06:42:24 51°14.187 2°55.361 3.1 257 6 99070 81
2004-04-19 06:42:29 51°14.199 2°55.349 3.1 260 6 99070 81
2004-04-19 06:42:34 51°14.21 2°55.337 3.4 259 6.1 99070 81
2004-04-19 06:42:39 51°14.221 2°55.324 3.4 253 6.1 99070 81
2004-04-19 06:42:44 51°14.232 2°55.31 2.9 254 6 99070 80
2004-04-19 06:42:49 51°14.242 2°55.296 2.1 255 6 99070 80
2004-04-19 06:42:54 51°14.252 2°55.28 3.4 274 6 99080 80
2004-04-19 06:43:00 51°14.264 2°55.261 3.7 284 6 99080 80
2004-04-19 06:43:04 51°14.272 2°55.248 3.8 307 6 99080 80
2004-04-19 06:43:09 51°14.281 2°55.23 3 307 6 99080 80
2004-04-19 06:43:14 51°14.291 2°55.212 2.4 326 6 99080 80
2004-04-19 06:43:18 51°14.298 2°55.197 3.7 327 6 99080 80
2004-04-19 06:43:24 51°14.309 2°55.174 4.2 333 6 99070 80
2004-04-19 06:43:29 51°14.318 2°55.155 4.9 312 6 99070 80
2004-04-19 06:43:34 51°14.327 2°55.135 4.6 319 6 99070 80
2004-04-19 06:43:39 51°14.336 2°55.115 5.3 321 6 99070 80
2004-04-19 06:43:44 51°14.345 2°55.095 7.4 333 6 99070 80
2004-04-19 06:43:49 51°14.353 2°55.074 7 335 6 99070 80
2004-04-19 06:43:54 51°14.362 2°55.052 4.7 347 6 99070 80
2004-04-19 06:44:00 51°14.373 2°55.025 4.5 345 6 99070 80
2004-04-19 06:44:04 51°14.38 2°55.006 4.3 339 6 99070 80
2004-04-19 06:44:09 51°14.389 2°54.983 6.9 316 6 99070 80
2004-04-19 06:44:14 51°14.397 2°54.958 6.6 322 6 99060 80
2004-04-19 06:44:19 51°14.406 2°54.932 6.9 329 6 99060 80
2004-04-19 06:44:24 51°14.413 2°54.905 7.5 40 6 99070 81
2004-04-19 06:44:29 51°14.42 2°54.878 7 321 6 99070 81
2004-04-19 06:44:34 51°14.425 2°54.849 8.2 321 6 99060 81
2004-04-19 06:44:38 51°14.429 2°54.826 9.8 326 6 99060 81
2004-04-19 06:44:44 51°14.433 2°54.79 8.8 318 6 99050 81
2004-04-19 06:44:49 51°14.436 2°54.76 7.6 307 6 99050 81
2004-04-19 06:44:54 51°14.436 2°54.729 6.9 315 6 99060 80
2004-04-19 06:45:00 51°14.435 2°54.693 10 331 6 99060 80
2004-04-19 06:45:04 51°14.434 2°54.668 11.8 326 6 99060 80
2004-04-19 06:45:08 51°14.431 2°54.644 11.7 324 6 99060 80
2004-04-19 06:45:13 51°14.427 2°54.613 12.9 330 6 99040 80
2004-04-19 06:45:19 51°14.423 2°54.576 10.8 333 6 99040 80
2004-04-19 06:45:24 51°14.418 2°54.546 11.7 341 6 99050 80
2004-04-19 06:45:29 51°14.412 2°54.516 11.3 333 6 99050 80
2004-04-19 06:45:34 51°14.406 2°54.486 11.3 329 6 99030 80
2004-04-19 06:45:39 51°14.399 2°54.457 12.5 333 6 99030 80
2004-04-19 06:45:44 51°14.391 2°54.429 12 331 6 99030 80
2004-04-19 06:45:49 51°14.383 2°54.4 14.4 316 6 99030 80
2004-04-19 06:45:54 51°14.375 2°54.372 13.1 314 6 99050 81
2004-04-19 06:45:59 51°14.367 2°54.344 13.9 332 6 99050 81
2004-04-19 06:46:04 51°14.359 2°54.316 11.2 333 6 99030 81
2004-04-19 06:46:09 51°14.351 2°54.289 13.7 334 6 99030 81
2004-04-19 06:46:14 51°14.342 2°54.261 13.5 333 6 99030 81
2004-04-19 06:46:18 51°14.335 2°54.24 14.1 328 6 99030 81
2004-04-19 06:46:24 51°14.324 2°54.207 13.4 329 6 99030 80
2004-04-19 06:46:29 51°14.315 2°54.18 13.4 334 6 99030 80
2004-04-19 06:46:34 51°14.306 2°54.153 13.6 346 6 99030 81
2004-04-19 06:46:40 51°14.295 2°54.12 12.7 331 6 99030 81
2004-04-19 06:46:44 51°14.288 2°54.099 11.7 333 6 99030 81
2004-04-19 06:46:49 51°14.279 2°54.072 11 335 6 99030 81
2004-04-19 06:46:54 51°14.27 2°54.044 10.8 341 6 99030 81
2004-04-19 06:46:59 51°14.261 2°54.017 11.7 337 6 99030 81
2004-04-19 06:47:04 51°14.253 2°53.989 13.4 343 6 99040 81
2004-04-19 06:47:09 51°14.244 2°53.962 12.7 344 6 99040 81
2004-04-19 06:47:14 51°14.236 2°53.934 11.9 342 6 99030 81
2004-04-19 06:47:18 51°14.229 2°53.911 13 337 6 99030 81
2004-04-19 06:47:24 51°14.22 2°53.878 11 330 6 99050 81
2004-04-19 06:47:29 51°14.212 2°53.85 15.6 332 6 99050 81
2004-04-19 06:47:34 51°14.204 2°53.822 14.5 333 6 99040 81
2004-04-19 06:47:39 51°14.196 2°53.793 12.1 323 6 99040 81
2004-04-19 06:47:44 51°14.188 2°53.766 13.2 321 6 99040 81
2004-04-19 06:47:49 51°14.18 2°53.738 13.9 336 6 99040 81
2004-04-19 06:47:54 51°14.171 2°53.71 13.7 337 6 99030 81
2004-04-19 06:47:59 51°14.162 2°53.682 14.3 342 6 99030 81
2004-04-19 06:48:04 51°14.154 2°53.654 14.2 337 6 99020 81
2004-04-19 06:48:09 51°14.145 2°53.626 13.5 334 6 99020 81
2004-04-19 06:48:14 51°14.136 2°53.598 13.3 333 6 99030 81
2004-04-19 06:48:20 51°14.126 2°53.564 12.3 335 6 99030 81
2004-04-19 06:48:24 51°14.12 2°53.541 14 334 6 99030 81
2004-04-19 06:48:29 51°14.112 2°53.512 13.2 332 6 99030 81
2004-04-19 06:48:34 51°14.104 2°53.483 12.2 335 6 99030 81
2004-04-19 06:48:39 51°14.096 2°53.454 12.2 336 6 99030 81
2004-04-19 06:48:44 51°14.088 2°53.425 11.4 334 6 99040 81
2004-04-19 06:48:49 51°14.08 2°53.396 11.7 333 6 99040 81
2004-04-19 06:48:54 51°14.072 2°53.367 12.3 329 6 99030 81
2004-04-19 06:48:58 51°14.065 2°53.344 13.1 337 6 99030 81
2004-04-19 06:49:04 51°14.054 2°53.31 13.2 341 6 99030 81
2004-04-19 06:49:09 51°14.043 2°53.283 14.6 336 6 99030 81
2004-04-19 06:49:14 51°14.032 2°53.256 15.7 333 6 99040 81
2004-04-19 06:49:19 51°14.021 2°53.23 12.1 333 6 99040 81
2004-04-19 06:49:24 51°14.01 2°53.203 12 333 6 99040 81
2004-04-19 06:49:29 51°13.998 2°53.177 13.3 340 6 99040 81
2004-04-19 06:49:34 51°13.987 2°53.151 12.8 340 6 99030 81
2004-04-19 06:49:39 51°13.976 2°53.124 12.8 336 6 99030 81
2004-04-19 06:49:44 51°13.965 2°53.097 14.6 336 6 99020 81
2004-04-19 06:49:49 51°13.955 2°53.069 12.7 335 6 99020 81
2004-04-19 06:49:54 51°13.946 2°53.04 13.2 333 6 99030 81
2004-04-19 06:49:58 51°13.939 2°53.016 11.7 327 6 99030 81
2004-04-19 06:50:04 51°13.93 2°52.98 11.7 334 6 99030 81
2004-04-19 06:50:09 51°13.923 2°52.95 12 336 6 99030 81
2004-04-19 06:50:14 51°13.917 2°52.92 13.4 334 6 99030 81
2004-04-19 06:50:20 51°13.909 2°52.884 14.1 329 6 99030 81
2004-04-19 06:50:24 51°13.903 2°52.859 14 332 6.1 99030 81
2004-04-19 06:50:29 51°13.896 2°52.83 14.3 334 6.1 99030 81
2004-04-19 06:50:34 51°13.888 2°52.8 14.8 335 6 99030 81
2004-04-19 06:50:38 51°13.88 2°52.777 14.6 336 6 99030 81
2004-04-19 06:50:44 51°13.868 2°52.743 14.7 337 6 99030 81
2004-04-19 06:50:49 51°13.858 2°52.715 15.5 337 6 99030 81
2004-04-19 06:50:54 51°13.847 2°52.687 13.1 332 6.1 99020 81
2004-04-19 06:50:59 51°13.836 2°52.659 13.7 332 6.1 99020 81
2004-04-19 06:51:04 51°13.826 2°52.632 12.6 333 6 99020 81
2004-04-19 06:51:09 51°13.815 2°52.604 14.6 334 6 99020 81
2004-04-19 06:51:13 51°13.808 2°52.581 14.4 326 6 99020 81
2004-04-19 06:51:19 51°13.796 2°52.546 15.9 326 6 99020 81
2004-04-19 06:51:24 51°13.788 2°52.516 15.2 324 6 99030 81
2004-04-19 06:51:29 51°13.779 2°52.487 16.1 320 6 99030 81
2004-04-19 06:51:34 51°13.771 2°52.457 14.7 323 6 99030 81
2004-04-19 06:51:39 51°13.763 2°52.427 12.5 326 6 99030 81
2004-04-19 06:51:44 51°13.755 2°52.396 12.5 329 6 99030 81
2004-04-19 06:51:49 51°13.747 2°52.367 12.3 335 6 99030 81
2004-04-19 06:51:54 51°13.738 2°52.337 13.7 337 6 99010 81
2004-04-19 06:51:59 51°13.728 2°52.308 13.8 334 6 99010 81
2004-04-19 06:52:04 51°13.719 2°52.279 13.4 336 6 99020 81
2004-04-19 06:52:09 51°13.709 2°52.25 15.8 335 6 99020 81
2004-04-19 06:52:14 51°13.698 2°52.222 15.7 335 6 99040 81
2004-04-19 06:52:18 51°13.69 2°52.199 15.5 328 6 99040 81
2004-04-19 06:52:24 51°13.678 2°52.165 15.5 325 6 99030 81
2004-04-19 06:52:29 51°13.667 2°52.136 16.2 330 6 99030 81
2004-04-19 06:52:34 51°13.657 2°52.108 15.2 330 6 99030 81
2004-04-19 06:52:39 51°13.647 2°52.079 13.7 337 6 99030 81
2004-04-19 06:52:44 51°13.637 2°52.05 15.3 338 6 99020 81
2004-04-19 06:52:49 51°13.628 2°52.021 14 329 6 99020 81
2004-04-19 06:52:54 51°13.618 2°51.991 13.8 328 6 99020 81
2004-04-19 06:53:00 51°13.608 2°51.956 12.3 331 6 99020 81
2004-04-19 06:53:04 51°13.601 2°51.932 13 332 6 99030 81
2004-04-19 06:53:09 51°13.592 2°51.902 13.2 334 6 99030 81
2004-04-19 06:53:14 51°13.583 2°51.872 14.1 330 6 99030 81
2004-04-19 06:53:18 51°13.575 2°51.849 13.7 330 6 99030 81
2004-04-19 06:53:24 51°13.563 2°51.813 12.4 329 6 99030 81
2004-04-19 06:53:29 51°13.553 2°51.784 13.1 335 6 99030 81
2004-04-19 06:53:34 51°13.543 2°51.755 13.4 336 6 99030 82
2004-04-19 06:53:40 51°13.531 2°51.721 13.9 335 6 99030 82
2004-04-19 06:53:44 51°13.523 2°51.698 13 340 6 99030 82
2004-04-19 06:53:48 51°13.514 2°51.675 14.6 336 6 99030 82
2004-04-19 06:53:54 51°13.502 2°51.64 15.6 337 6.1 99040 82
2004-04-19 06:53:59 51°13.492 2°51.611 14.7 330 6.1 99040 82
2004-04-19 06:54:04 51°13.482 2°51.582 14.1 335 6.1 99030 82
2004-04-19 06:54:09 51°13.472 2°51.552 14.1 336 6.1 99030 82
2004-04-19 06:54:14 51°13.463 2°51.523 13.5 337 6.1 99030 82
2004-04-19 06:54:20 51°13.452 2°51.487 14.8 332 6.1 99030 82
2004-04-19 06:54:24 51°13.444 2°51.463 15.4 336 6.1 99020 82
2004-04-19 06:54:29 51°13.435 2°51.433 15.5 329 6.1 99020 82
2004-04-19 06:54:34 51°13.425 2°51.404 15.6 334 6.1 99030 82
2004-04-19 06:54:38 51°13.417 2°51.38 13.8 329 6.1 99030 82
2004-04-19 06:54:44 51°13.405 2°51.345 13.5 334 6.1 99030 82
2004-04-19 06:54:48 51°13.397 2°51.322 13.3 332 6.1 99030 82
2004-04-19 06:54:54 51°13.384 2°51.288 12.6 331 6.1 99030 82
2004-04-19 06:54:59 51°13.374 2°51.259 14.2 329 6.1 99030 82
2004-04-19 06:55:04 51°13.363 2°51.23 14 332 6 99020 82
2004-04-19 06:55:09 51°13.353 2°51.201 13.1 332 6 99020 82
2004-04-19 06:55:14 51°13.344 2°51.171 14.3 327 6.1 99030 82
2004-04-19 06:55:19 51°13.334 2°51.141 13.1 335 6.1 99030 82
2004-04-19 06:55:24 51°13.324 2°51.112 14.2 334 6 99030 82
2004-04-19 06:55:29 51°13.314 2°51.082 13.4 329 6 99030 82
2004-04-19 06:55:34 51°13.305 2°51.053 15.4 331 6.1 99030 82
2004-04-19 06:55:38 51°13.296 2°51.029 15.1 332 6.1 99030 82
2004-04-19 06:55:44 51°13.284 2°50.994 13.8 332 6.1 99030 82
2004-04-19 06:55:49 51°13.274 2°50.964 13.9 334 6.1 99030 82
2004-04-19 06:55:54 51°13.264 2°50.935 14.2 334 6.1 99030 82
2004-04-19 06:55:58 51°13.256 2°50.912 15.7 331 6.1 99030 82
2004-04-19 06:56:04 51°13.244 2°50.877 15.4 330 6.1 99030 82
2004-04-19 06:56:09 51°13.233 2°50.847 14.3 330 6.1 99030 82
2004-04-19 06:56:14 51°13.224 2°50.818 13.1 335 6.1 99030 82
2004-04-19 06:56:19 51°13.214 2°50.789 11.9 332 6.1 99030 82
2004-04-19 06:56:24 51°13.204 2°50.759 11.9 336 6 99030 82
2004-04-19 06:56:29 51°13.193 2°50.73 13.1 335 6 99030 82
2004-04-19 06:56:34 51°13.183 2°50.701 13.2 335 6 99030 82
2004-04-19 06:56:40 51°13.17 2°50.667 14.4 336 6 99030 82
2004-04-19 06:56:44 51°13.162 2°50.643 14.2 331 6 99040 82
2004-04-19 06:56:49 51°13.151 2°50.615 15.4 332 6 99040 82
2004-04-19 06:56:54 51°13.141 2°50.586 15.2 332 6.1 99040 82
2004-04-19 06:56:59 51°13.13 2°50.557 13.1 331 6.1 99040 82
2004-04-19 06:57:04 51°13.12 2°50.528 13.9 338 6 99040 82
2004-04-19 06:57:09 51°13.109 2°50.499 13.4 334 6 99040 82
2004-04-19 06:57:14 51°13.099 2°50.471 14.1 327 6 99030 82
2004-04-19 06:57:18 51°13.091 2°50.448 14.3 330 6 99030 82
2004-04-19 06:57:24 51°13.078 2°50.413 14.7 332 6 99030 82
2004-04-19 06:57:29 51°13.067 2°50.385 15.5 327 6 99030 82
2004-04-19 06:57:34 51°13.057 2°50.356 14.2 328 6 99040 82
2004-04-19 06:57:39 51°13.046 2°50.327 14.9 330 6 99040 82
2004-04-19 06:57:44 51°13.036 2°50.299 12.8 333 6 99030 82
2004-04-19 06:57:49 51°13.025 2°50.27 14.5 329 6 99030 82
2004-04-19 06:57:54 51°13.015 2°50.241 14.7 330 6 99030 82
2004-04-19 06:57:58 51°13.006 2°50.218 15.5 322 6 99030 82
2004-04-19 06:58:04 51°12.994 2°50.183 15 328 6 99030 82
2004-04-19 06:58:09 51°12.984 2°50.154 14.4 334 6 99030 82
2004-04-19 06:58:13 51°12.975 2°50.131 15.2 333 6 99030 82
2004-04-19 06:58:18 51°12.965 2°50.102 13.8 329 6 99030 82
2004-04-19 06:58:24 51°12.952 2°50.067 14.1 330 6 99020 82
2004-04-19 06:58:29 51°12.942 2°50.039 14.2 328 6 99020 82
2004-04-19 06:58:34 51°12.931 2°50.01 14.1 332 6 99030 82
2004-04-19 06:58:38 51°12.923 2°49.986 14.2 332 6 99030 82
2004-04-19 06:58:44 51°12.911 2°49.952 13.1 330 6 99030 82
2004-04-19 06:58:49 51°12.9 2°49.923 12.9 336 6 99030 82
2004-04-19 06:58:54 51°12.89 2°49.893 13.5 334 6 99030 82
2004-04-19 06:58:58 51°12.882 2°49.87 13.1 334 6 99030 82
2004-04-19 06:59:04 51°12.869 2°49.835 12.9 337 6 99040 82
2004-04-19 06:59:09 51°12.859 2°49.806 14.7 336 6 99040 82
2004-04-19 06:59:14 51°12.849 2°49.777 14.5 332 6 99040 82
2004-04-19 06:59:19 51°12.839 2°49.747 15.1 325 6 99040 82
2004-04-19 06:59:24 51°12.828 2°49.718 13.9 325 6 99030 82
2004-04-19 06:59:28 51°12.82 2°49.695 12.8 328 6 99030 82
2004-04-19 06:59:34 51°12.807 2°49.66 14.2 327 6 99030 83
2004-04-19 06:59:40 51°12.795 2°49.625 13 332 6 99030 83
2004-04-19 06:59:44 51°12.787 2°49.602 14.6 336 6 99030 82
2004-04-19 06:59:49 51°12.777 2°49.573 15.4 333 6 99030 82
2004-04-19 06:59:54 51°12.766 2°49.543 14.1 336 6 99020 82
2004-04-19 06:59:59 51°12.756 2°49.514 12.7 336 6 99020 82
2004-04-19 07:00:04 51°12.746 2°49.485 12.7 331 6 99030 83
2004-04-19 07:00:09 51°12.735 2°49.456 13.4 336 6 99030 83
2004-04-19 07:00:14 51°12.724 2°49.427 14.2 334 6 99020 83
2004-04-19 07:00:18 51°12.716 2°49.404 13.1 330 6 99020 83
2004-04-19 07:00:24 51°12.704 2°49.369 12.4 335 6 99030 83
2004-04-19 07:00:29 51°12.693 2°49.34 12.6 335 6 99030 83
2004-04-19 07:00:34 51°12.683 2°49.311 11.7 339 6 99030 83
2004-04-19 07:00:39 51°12.672 2°49.282 14.6 330 6 99030 83
2004-04-19 07:00:44 51°12.662 2°49.252 15.7 331 6 99040 83
2004-04-19 07:00:49 51°12.652 2°49.223 14.4 327 6 99040 83
2004-04-19 07:00:54 51°12.641 2°49.194 14.7 327 6 99040 83
2004-04-19 07:00:58 51°12.633 2°49.17 14.3 328 6 99040 83
2004-04-19 07:01:04 51°12.621 2°49.135 15.3 329 6 99040 83
2004-04-19 07:01:09 51°12.61 2°49.106 14.8 329 6 99040 83
2004-04-19 07:01:14 51°12.6 2°49.077 13.4 331 6 99020 82
2004-04-19 07:01:20 51°12.588 2°49.042 12.6 328 6 99020 82
2004-04-19 07:01:24 51°12.579 2°49.019 14.2 328 6 99030 82
2004-04-19 07:01:29 51°12.569 2°48.989 13.7 332 6 99030 82
2004-04-19 07:01:34 51°12.559 2°48.96 12.3 326 6 99030 83
2004-04-19 07:01:38 51°12.55 2°48.937 13.7 337 6 99030 83
2004-04-19 07:01:44 51°12.538 2°48.901 14.4 336 6 99030 83
2004-04-19 07:01:49 51°12.528 2°48.872 14.4 328 6 99030 83
2004-04-19 07:01:54 51°12.517 2°48.843 13.6 328 6 99040 83
2004-04-19 07:01:58 51°12.509 2°48.82 14 329 6 99040 83
2004-04-19 07:02:04 51°12.496 2°48.785 14.4 328 6 99030 83
2004-04-19 07:02:09 51°12.486 2°48.756 13.7 329 6 99030 83
2004-04-19 07:02:14 51°12.476 2°48.726 13.9 327 6 99040 83
2004-04-19 07:02:18 51°12.467 2°48.703 13 336 6 99040 83
2004-04-19 07:02:24 51°12.455 2°48.668 14.2 332 6 99030 83
2004-04-19 07:02:29 51°12.445 2°48.638 12 328 6 99030 83
2004-04-19 07:02:34 51°12.434 2°48.609 12.8 333 6 99020 82
2004-04-19 07:02:39 51°12.424 2°48.58 13.2 334 6 99020 82
2004-04-19 07:02:44 51°12.414 2°48.551 12.5 330 6 99020 83
2004-04-19 07:02:49 51°12.403 2°48.522 13 334 6 99020 83
2004-04-19 07:02:54 51°12.393 2°48.492 13.9 337 6 99030 83
2004-04-19 07:02:58 51°12.384 2°48.469 12.6 333 6 99030 83
2004-04-19 07:03:04 51°12.372 2°48.434 14.2 333 6 99030 83
2004-04-19 07:03:09 51°12.361 2°48.405 14 327 6 99030 83
2004-04-19 07:03:14 51°12.351 2°48.375 13.4 329 6 99030 83
2004-04-19 07:03:18 51°12.343 2°48.352 14.2 328 6 99030 83
2004-04-19 07:03:24 51°12.331 2°48.317 12.9 333 6 99030 83
2004-04-19 07:03:29 51°12.32 2°48.288 13.5 330 6 99030 83
2004-04-19 07:03:34 51°12.31 2°48.258 12.3 334 6 99030 83
2004-04-19 07:03:40 51°12.297 2°48.223 11.9 338 6 99030 83
2004-04-19 07:03:44 51°12.289 2°48.2 12.8 339 6 99040 83
2004-04-19 07:03:49 51°12.279 2°48.171 14 334 6 99040 83
2004-04-19 07:03:54 51°12.269 2°48.141 14.4 335 6.1 99030 83
2004-04-19 07:03:58 51°12.261 2°48.118 14.7 336 6.1 99030 83
2004-04-19 07:04:04 51°12.248 2°48.083 14.1 331 6.1 99040 83
2004-04-19 07:04:09 51°12.238 2°48.054 14.3 335 6.1 99040 83
2004-04-19 07:04:14 51°12.228 2°48.024 13 330 6.1 99040 83
2004-04-19 07:04:18 51°12.219 2°48.001 13.5 325 6.1 99040 83
2004-04-19 07:04:24 51°12.207 2°47.966 14.1 330 6.1 99030 83
2004-04-19 07:04:29 51°12.197 2°47.936 14 330 6.1 99030 83
2004-04-19 07:04:34 51°12.186 2°47.907 14.8 331 6.1 99020 83
2004-04-19 07:04:40 51°12.174 2°47.872 14 332 6.1 99020 83
2004-04-19 07:04:44 51°12.166 2°47.849 13.8 331 6.1 99030 83
2004-04-19 07:04:49 51°12.156 2°47.819 12.8 336 6.1 99030 83
2004-04-19 07:04:54 51°12.145 2°47.79 13.4 337 6 99030 83
2004-04-19 07:05:00 51°12.133 2°47.755 13.5 341 6 99030 83
2004-04-19 07:05:04 51°12.125 2°47.732 14.7 337 6 99030 83
2004-04-19 07:05:09 51°12.115 2°47.703 13 328 6 99030 83
2004-04-19 07:05:14 51°12.105 2°47.673 12.7 327 6 99030 83
2004-04-19 07:05:20 51°12.092 2°47.638 13.7 330 6 99030 83
2004-04-19 07:05:24 51°12.084 2°47.615 13.3 327 6 99030 83
2004-04-19 07:05:29 51°12.074 2°47.585 13.3 330 6 99030 83
2004-04-19 07:05:34 51°12.064 2°47.556 13.4 329 6.1 99030 83
2004-04-19 07:05:39 51°12.054 2°47.527 12.7 329 6.1 99030 83
2004-04-19 07:05:44 51°12.043 2°47.498 12.7 329 6.1 99030 83
2004-04-19 07:05:49 51°12.033 2°47.469 14.7 330 6.1 99030 83
2004-04-19 07:05:54 51°12.023 2°47.439 13.7 326 6.1 99030 83
2004-04-19 07:06:00 51°12.011 2°47.404 14.5 328 6.1 99030 83
2004-04-19 07:06:04 51°12.003 2°47.381 12.9 326 6 99030 83
2004-04-19 07:06:09 51°11.992 2°47.351 13.3 334 6 99030 83
2004-04-19 07:06:14 51°11.982 2°47.322 14.3 330 6 99030 83
2004-04-19 07:06:20 51°11.971 2°47.286 13.5 327 6 99030 83
2004-04-19 07:06:24 51°11.964 2°47.262 13.8 327 6.1 99030 83
2004-04-19 07:06:29 51°11.955 2°47.232 13.8 332 6.1 99030 83
2004-04-19 07:06:34 51°11.946 2°47.201 13 329 6.1 99030 83
2004-04-19 07:06:38 51°11.939 2°47.177 12.8 325 6.1 99030 83
2004-04-19 07:06:44 51°11.929 2°47.14 13.7 327 6.1 99030 83
2004-04-19 07:06:49 51°11.921 2°47.109 13.4 333 6.1 99030 83
2004-04-19 07:06:54 51°11.912 2°47.079 13.9 334 6.1 99030 83
2004-04-19 07:07:00 51°11.902 2°47.042 13.1 330 6.1 99030 83
2004-04-19 07:07:05 51°11.893 2°47.011 13.3 328 6.2 99030 84
2004-04-19 07:07:09 51°11.886 2°46.987 13.2 337 6.2 99030 84
2004-04-19 07:07:14 51°11.878 2°46.956 13.7 338 6.1 99040 84
2004-04-19 07:07:19 51°11.869 2°46.925 14.4 332 6.1 99040 84
2004-04-19 07:07:24 51°11.861 2°46.895 13.3 332 6.1 99030 83
2004-04-19 07:07:29 51°11.852 2°46.864 13.5 329 6.1 99030 83
2004-04-19 07:07:34 51°11.843 2°46.833 13.7 329 6.1 99040 83
2004-04-19 07:07:38 51°11.836 2°46.809 13.6 330 6.1 99040 83
2004-04-19 07:07:44 51°11.826 2°46.772 13.6 327 6.1 99030 83
2004-04-19 07:07:49 51°11.818 2°46.741 13.1 321 6.1 99030 83
2004-04-19 07:07:54 51°11.809 2°46.711 13.1 325 6.1 99030 83
2004-04-19 07:07:58 51°11.802 2°46.686 12.8 333 6.1 99030 83
2004-04-19 07:08:04 51°11.792 2°46.649 13.8 331 6.1 99040 83
2004-04-19 07:08:08 51°11.785 2°46.625 12 327 6.1 99040 83
2004-04-19 07:08:14 51°11.774 2°46.588 12.5 330 6.1 99030 83
2004-04-19 07:08:18 51°11.768 2°46.563 13.7 329 6.1 99030 83
2004-04-19 07:08:24 51°11.757 2°46.527 12.8 333 6.1 99040 83
2004-04-19 07:08:29 51°11.748 2°46.496 13.1 334 6.1 99040 83
2004-04-19 07:08:34 51°11.741 2°46.464 12.9 336 6.1 99030 83
2004-04-19 07:08:38 51°11.735 2°46.439 12.3 328 6.1 99030 83
2004-04-19 07:08:44 51°11.728 2°46.4 13.4 325 6.1 99040 83
2004-04-19 07:08:49 51°11.723 2°46.368 13.2 319 6.1 99040 83
2004-04-19 07:08:54 51°11.718 2°46.335 12.7 320 6.1 99040 83
2004-04-19 07:08:58 51°11.715 2°46.309 12.6 322 6.1 99040 83
2004-04-19 07:09:04 51°11.711 2°46.269 12.5 324 6.1 99040 83
2004-04-19 07:09:09 51°11.707 2°46.236 10.9 322 6.1 99040 83
2004-04-19 07:09:14 51°11.704 2°46.203 12.1 329 6.1 99030 83
2004-04-19 07:09:20 51°11.7 2°46.163 11.7 319 6.1 99030 83
2004-04-19 07:09:24 51°11.697 2°46.137 12 324 6.1 99040 83
2004-04-19 07:09:29 51°11.693 2°46.104 13.7 322 6.1 99040 83
2004-04-19 07:09:34 51°11.689 2°46.071 13.6 323 6.1 99040 83
2004-04-19 07:09:40 51°11.683 2°46.031 12 327 6.1 99040 83
2004-04-19 07:09:44 51°11.68 2°46.005 13.1 324 6.1 99050 83
2004-04-19 07:09:49 51°11.675 2°45.972 13.6 329 6.1 99050 83
2004-04-19 07:09:54 51°11.67 2°45.939 12.5 327 6.1 99050 83
2004-04-19 07:09:58 51°11.666 2°45.913 14.2 326 6.1 99050 83
2004-04-19 07:10:04 51°11.66 2°45.874 13.5 327 6.1 99040 83
2004-04-19 07:10:09 51°11.655 2°45.842 12.8 331 6.1 99040 83
2004-04-19 07:10:14 51°11.65 2°45.809 13.1 331 6.1 99030 83
2004-04-19 07:10:19 51°11.645 2°45.776 12.3 330 6.1 99030 83
2004-04-19 07:10:24 51°11.64 2°45.743 14.4 327 6.1 99030 83
2004-04-19 07:10:29 51°11.636 2°45.71 13.6 326 6.1 99030 83
2004-04-19 07:10:34 51°11.631 2°45.676 14 325 6.1 99040 83
2004-04-19 07:10:40 51°11.626 2°45.636 13 324 6.1 99040 83
2004-04-19 07:10:44 51°11.622 2°45.61 13 322 6.1 99040 83
2004-04-19 07:10:49 51°11.617 2°45.577 12.4 326 6.1 99040 83
2004-04-19 07:10:54 51°11.612 2°45.544 12.6 321 6.1 99040 83
2004-04-19 07:10:58 51°11.609 2°45.518 14.2 321 6.1 99040 83
2004-04-19 07:11:04 51°11.603 2°45.478 13.4 317 6.1 99040 83
2004-04-19 07:11:09 51°11.598 2°45.445 14.1 324 6.1 99040 83
2004-04-19 07:11:14 51°11.593 2°45.412 14.5 326 6.1 99040 83
2004-04-19 07:11:18 51°11.59 2°45.386 12.9 324 6.1 99040 83
2004-04-19 07:11:24 51°11.584 2°45.346 13.8 320 6.1 99040 83
2004-04-19 07:11:29 51°11.58 2°45.313 12.9 323 6.1 99040 83
2004-04-19 07:11:34 51°11.575 2°45.28 13 320 6.1 99040 83
2004-04-19 07:11:40 51°11.569 2°45.24 14.1 317 6.1 99040 83
2004-04-19 07:11:44 51°11.565 2°45.214 13.8 322 6.1 99040 83
2004-04-19 07:11:49 51°11.561 2°45.181 14.6 323 6.1 99040 83
2004-04-19 07:11:54 51°11.556 2°45.148 14.7 323 6.1 99040 82
2004-04-19 07:12:00 51°11.55 2°45.108 14.5 321 6.1 99040 82
2004-04-19 07:12:04 51°11.547 2°45.082 13.9 321 6.1 99040 82
2004-04-19 07:12:09 51°11.542 2°45.049 13.7 320 6.1 99040 82
2004-04-19 07:12:14 51°11.537 2°45.016 14.5 322 6.1 99040 82
2004-04-19 07:12:19 51°11.533 2°44.983 15.8 322 6.1 99040 82
2004-04-19 07:12:24 51°11.528 2°44.95 15.2 319 6.1 99040 82
2004-04-19 07:12:29 51°11.523 2°44.918 15.9 316 6.1 99040 82
2004-04-19 07:12:34 51°11.519 2°44.885 16.1 320 6.1 99040 82
2004-04-19 07:12:38 51°11.515 2°44.858 13.8 323 6.1 99040 82
2004-04-19 07:12:44 51°11.509 2°44.819 14.4 324 6.1 99040 82
2004-04-19 07:12:49 51°11.504 2°44.786 14.6 322 6.1 99040 82
2004-04-19 07:12:54 51°11.499 2°44.753 15.7 322 6.1 99030 82
2004-04-19 07:13:00 51°11.493 2°44.714 14.4 321 6.1 99030 82
2004-04-19 07:13:04 51°11.49 2°44.688 13.2 324 6.1 99020 82
2004-04-19 07:13:08 51°11.486 2°44.661 14.4 327 6.1 99020 82
2004-04-19 07:13:14 51°11.48 2°44.622 13.8 327 6.1 99040 82
2004-04-19 07:13:19 51°11.475 2°44.589 13.5 326 6.1 99040 82
2004-04-19 07:13:24 51°11.471 2°44.556 14.1 325 6.1 99030 82
2004-04-19 07:13:29 51°11.466 2°44.524 12.7 325 6.1 99030 82
2004-04-19 07:13:34 51°11.461 2°44.491 13.5 321 6.1 99030 82
2004-04-19 07:13:38 51°11.458 2°44.465 13.8 324 6.1 99030 82
2004-04-19 07:13:44 51°11.452 2°44.425 13.2 324 6.1 99040 82
2004-04-19 07:13:49 51°11.448 2°44.392 14.1 327 6.1 99040 82
2004-04-19 07:13:54 51°11.443 2°44.36 13.5 326 6.1 99040 82
2004-04-19 07:14:00 51°11.437 2°44.32 15.1 331 6.1 99040 82
2004-04-19 07:14:04 51°11.433 2°44.294 14 329 6.1 99040 82
2004-04-19 07:14:09 51°11.428 2°44.262 15.8 322 6.1 99040 82
2004-04-19 07:14:14 51°11.424 2°44.229 15.1 325 6.1 99040 82
2004-04-19 07:14:19 51°11.419 2°44.196 15.3 328 6.1 99040 82
2004-04-19 07:14:24 51°11.414 2°44.164 15.5 324 6.1 99040 82
2004-04-19 07:14:29 51°11.409 2°44.131 14.5 321 6.1 99040 82
2004-04-19 07:14:34 51°11.404 2°44.099 14.7 326 6.1 99030 82
2004-04-19 07:14:38 51°11.4 2°44.073 13.8 322 6.1 99030 82
2004-04-19 07:14:44 51°11.395 2°44.034 14.2 323 6.1 99040 82
2004-04-19 07:14:49 51°11.39 2°44.001 13.1 323 6.1 99040 82
2004-04-19 07:14:54 51°11.385 2°43.968 14 319 6.1 99030 81
2004-04-19 07:14:58 51°11.382 2°43.942 13.1 329 6.1 99030 81
2004-04-19 07:15:04 51°11.376 2°43.903 13.5 320 6.1 99030 81
2004-04-19 07:15:08 51°11.372 2°43.877 13.2 323 6.1 99030 81
2004-04-19 07:15:14 51°11.367 2°43.838 13.9 324 6.1 99040 81
2004-04-19 07:15:20 51°11.361 2°43.799 14.8 318 6.1 99040 81
2004-04-19 07:15:24 51°11.357 2°43.773 13.4 323 6.1 99040 82
2004-04-19 07:15:29 51°11.353 2°43.74 14.5 325 6.1 99040 82
2004-04-19 07:15:34 51°11.348 2°43.708 14.2 323 6.1 99030 82
2004-04-19 07:15:38 51°11.344 2°43.682 15.5 319 6.1 99030 82
2004-04-19 07:15:44 51°11.339 2°43.643 15.7 322 6.1 99030 82
2004-04-19 07:15:48 51°11.335 2°43.617 15.8 319 6.1 99030 82
2004-04-19 07:15:54 51°11.33 2°43.578 15.1 318 6.1 99040 82
2004-04-19 07:15:58 51°11.326 2°43.552 14.1 317 6.1 99040 82
2004-04-19 07:16:04 51°11.321 2°43.513 13.7 316 6.1 99030 81
2004-04-19 07:16:09 51°11.316 2°43.48 13.2 320 6.1 99030 81
2004-04-19 07:16:14 51°11.311 2°43.448 14.1 319 6.1 99020 81
2004-04-19 07:16:19 51°11.307 2°43.415 12.9 320 6.1 99020 81
2004-04-19 07:16:24 51°11.302 2°43.383 14.6 319 6.1 99030 81
2004-04-19 07:16:29 51°11.298 2°43.35 11.5 44 6.1 99030 81
2004-04-19 07:16:34 51°11.293 2°43.318 13.5 40 6.1 99050 81
2004-04-19 07:16:38 51°11.29 2°43.292 12.9 321 6.1 99050 81
2004-04-19 07:16:44 51°11.284 2°43.253 12.9 317 6.1 99040 81
2004-04-19 07:16:49 51°11.28 2°43.221 11.8 329 6.1 99040 81
2004-04-19 07:16:54 51°11.275 2°43.188 13.8 327 6.1 99040 81
2004-04-19 07:16:58 51°11.271 2°43.162 13.9 325 6.1 99040 81
2004-04-19 07:17:04 51°11.266 2°43.124 13.7 324 6.1 99030 81
2004-04-19 07:17:08 51°11.262 2°43.098 13.3 326 6.1 99030 81
2004-04-19 07:17:14 51°11.257 2°43.059 13.7 329 6.2 99040 81
2004-04-19 07:17:18 51°11.253 2°43.033 13.7 329 6.2 99040 81
2004-04-19 07:17:24 51°11.248 2°42.994 14.3 328 6.2 99040 82
2004-04-19 07:17:29 51°11.244 2°42.962 14.5 330 6.2 99040 82
2004-04-19 07:17:34 51°11.239 2°42.93 14.6 330 6.2 99050 82
2004-04-19 07:17:40 51°11.234 2°42.891 13.2 332 6.2 99050 82
2004-04-19 07:17:44 51°11.23 2°42.866 13.5 332 6.2 99040 81
2004-04-19 07:17:49 51°11.226 2°42.834 13.7 324 6.2 99040 81
2004-04-19 07:17:54 51°11.221 2°42.801 11.5 323 6.2 99030 81
2004-04-19 07:17:59 51°11.217 2°42.769 13.5 319 6.2 99030 81
2004-04-19 07:18:04 51°11.212 2°42.737 13.3 323 6.1 99040 81
2004-04-19 07:18:09 51°11.208 2°42.705 11.8 319 6.1 99040 81
2004-04-19 07:18:14 51°11.204 2°42.675 11.1 322 6.1 99030 80
2004-04-19 07:18:19 51°11.2 2°42.646 12.1 316 6.1 99030 80
2004-04-19 07:18:24 51°11.196 2°42.618 10.2 321 6.1 99040 80
2004-04-19 07:18:29 51°11.192 2°42.592 11.9 322 6.1 99040 80
2004-04-19 07:18:34 51°11.187 2°42.568 11.4 324 6.1 99040 80
2004-04-19 07:18:39 51°11.183 2°42.545 11.4 320 6.1 99040 80
2004-04-19 07:18:44 51°11.178 2°42.524 11.4 323 6.1 99050 80
2004-04-19 07:18:49 51°11.174 2°42.504 12.2 316 6.1 99050 80
2004-04-19 07:18:54 51°11.169 2°42.486 13.4 37 6.1 99050 80
2004-04-19 07:18:58 51°11.165 2°42.471 11.6 314 6.1 99050 80
2004-04-19 07:19:04 51°11.16 2°42.449 11.4 310 6.1 99050 80
2004-04-19 07:19:09 51°11.156 2°42.431 10.5 310 6.1 99050 80
2004-04-19 07:19:14 51°11.153 2°42.414 9.8 308 6.1 99040 81
2004-04-19 07:19:18 51°11.151 2°42.399 12.1 298 6.1 99040 81
2004-04-19 07:19:24 51°11.148 2°42.379 11.4 300 6.1 99040 80
2004-04-19 07:19:29 51°11.146 2°42.361 11.6 298 6.1 99040 80
2004-04-19 07:19:34 51°11.144 2°42.344 10.3 298 6.1 99040 80
2004-04-19 07:19:38 51°11.143 2°42.331 8.9 299 6.1 99040 80
2004-04-19 07:19:44 51°11.141 2°42.312 9.7 298 6.1 99060 80
2004-04-19 07:19:49 51°11.139 2°42.296 8.3 303 6.1 99060 80
2004-04-19 07:19:54 51°11.137 2°42.282 9.7 302 6.1 99060 80
2004-04-19 07:20:00 51°11.135 2°42.265 8.6 310 6.1 99060 80
2004-04-19 07:20:04 51°11.133 2°42.255 9.7 308 6.1 99050 80
2004-04-19 07:20:09 51°11.13 2°42.242 9.4 305 6.1 99050 80
2004-04-19 07:20:14 51°11.128 2°42.23 8.5 313 6.1 99060 81
2004-04-19 07:20:18 51°11.126 2°42.22 9.7 321 6.1 99060 81
2004-04-19 07:20:24 51°11.122 2°42.207 8.3 317 6.1 99050 81
2004-04-19 07:20:29 51°11.12 2°42.197 8.3 319 6.1 99050 81
2004-04-19 07:20:34 51°11.117 2°42.186 9 323 6.2 99050 81
2004-04-19 07:20:39 51°11.115 2°42.177 8.6 313 6.2 99050 81
2004-04-19 07:20:44 51°11.112 2°42.167 8.6 310 6.2 99050 81
2004-04-19 07:20:49 51°11.109 2°42.158 8.2 310 6.2 99050 81
2004-04-19 07:20:54 51°11.107 2°42.149 9.1 309 6.2 99050 81
2004-04-19 07:20:58 51°11.105 2°42.141 7.3 301 6.2 99050 81
2004-04-19 07:21:04 51°11.103 2°42.131 7 306 6.1 99060 81
2004-04-19 07:21:09 51°11.101 2°42.123 7.6 43 6.1 99060 81
2004-04-19 07:21:14 51°11.099 2°42.115 8.1 302 6.2 99060 81
2004-04-19 07:21:20 51°11.098 2°42.107 7 301 6.2 99060 81
2004-04-19 07:21:24 51°11.097 2°42.102 7.3 308 6.2 99060 80
2004-04-19 07:21:29 51°11.096 2°42.098 7.5 280 6.2 99060 80
2004-04-19 07:21:34 51°11.095 2°42.094 7.6 287 6.2 99060 81
2004-04-19 07:21:39 51°11.095 2°42.092 6.9 289 6.2 99060 81
2004-04-19 07:21:44 51°11.095 2°42.09 8 294 6.2 99060 81
2004-04-19 07:21:49 51°11.095 2°42.089 7.1 283 6.2 99060 81
2004-04-19 07:21:54 51°11.095 2°42.089 7.6 286 6.2 99060 81
2004-04-19 07:21:58 51°11.095 2°42.089 8 281 6.2 99060 81
2004-04-19 07:22:04 51°11.095 2°42.088 7 276 6.2 99070 81
2004-04-19 07:22:10 51°11.095 2°42.087 8 277 6.2 99070 81
2004-04-19 07:22:14 51°11.094 2°42.087 8.9 272 6.2 99070 81
2004-04-19 07:22:20 51°11.094 2°42.086 9.8 266 6.2 99070 81
2004-04-19 07:22:25 51°11.094 2°42.085 9.1 267 6.2 99060 81
2004-04-19 07:22:30 51°11.094 2°42.084 10 270 6.2 99060 81
2004-04-19 07:22:34 51°11.094 2°42.083 9.9 268 6.2 99070 81
2004-04-19 07:22:40 51°11.094 2°42.082 10.1 265 6.2 99070 81
2004-04-19 07:22:44 51°11.094 2°42.081 11.4 263 6.2 99080 80
2004-04-19 07:22:49 51°11.093 2°42.08 9.5 258 6.2 99080 80
2004-04-19 07:22:54 51°11.093 2°42.079 9.2 260 6.2 99080 80
2004-04-19 07:22:59 51°11.093 2°42.078 6.9 255 6.2 99080 80
2004-04-19 07:23:04 51°11.093 2°42.076 8.8 270 6.2 99070 80
2004-04-19 07:23:08 51°11.093 2°42.075 9.7 278 6.2 99070 80
2004-04-19 07:23:14 51°11.093 2°42.074 9.4 277 6.2 99070 80
2004-04-19 07:23:18 51°11.093 2°42.073 9.4 275 6.2 99070 80
2004-04-19 07:23:25 51°11.092 2°42.071 9 276 6.2 99080 80
2004-04-19 07:23:29 51°11.092 2°42.069 9.2 278 6.2 99080 80
2004-04-19 07:23:34 51°11.092 2°42.068 9.7 272 6.2 99080 80
2004-04-19 07:23:38 51°11.092 2°42.067 9.1 271 6.2 99080 80
2004-04-19 07:23:44 51°11.092 2°42.065 8.9 261 6.2 99070 80
2004-04-19 07:23:49 51°11.092 2°42.063 8 258 6.2 99070 80
2004-04-19 07:23:54 51°11.092 2°42.062 8.1 259 6.2 99070 80
2004-04-19 07:23:59 51°11.092 2°42.06 8.9 260 6.2 99070 80
2004-04-19 07:24:04 51°11.092 2°42.059 8.5 260 6.2 99070 80
2004-04-19 07:24:09 51°11.092 2°42.057 7.3 260 6.2 99070 80
2004-04-19 07:24:14 51°11.092 2°42.055 8 262 6.2 99080 81
2004-04-19 07:24:18 51°11.092 2°42.054 8.2 258 6.2 99080 81
2004-04-19 07:24:24 51°11.092 2°42.051 6.5 253 6.2 99080 80
2004-04-19 07:24:29 51°11.092 2°42.049 10.2 264 6.2 99080 80
2004-04-19 07:24:34 51°11.092 2°42.047 10.9 263 6.2 99080 80
2004-04-19 07:24:39 51°11.092 2°42.045 9 260 6.2 99080 80
2004-04-19 07:24:44 51°11.092 2°42.043 9.2 260 6.2 99080 80
2004-04-19 07:24:48 51°11.092 2°42.042 10.6 268 6.2 99080 80
2004-04-19 07:24:54 51°11.092 2°42.039 10.7 266 6.2 99080 80
2004-04-19 07:24:59 51°11.092 2°42.037 8.6 259 6.2 99080 80
2004-04-19 07:25:04 51°11.093 2°42.035 7.9 255 6.2 99090 80
2004-04-19 07:25:09 51°11.093 2°42.033 7.2 257 6.2 99090 80
2004-04-19 07:25:14 51°11.093 2°42.031 7.1 257 6.1 99070 80
2004-04-19 07:25:18 51°11.093 2°42.029 8.5 261 6.1 99070 80
2004-04-19 07:25:24 51°11.093 2°42.027 9.5 262 6.1 99080 80
2004-04-19 07:25:29 51°11.094 2°42.024 7.3 257 6.1 99080 80
2004-04-19 07:25:34 51°11.094 2°42.022 8 258 6.1 99090 80
2004-04-19 07:25:39 51°11.094 2°42.02 6.2 253 6.1 99090 80
2004-04-19 07:25:44 51°11.094 2°42.018 6.7 256 6.2 99080 80
2004-04-19 07:25:49 51°11.094 2°42.015 7 255 6.2 99080 80
2004-04-19 07:25:54 51°11.094 2°42.013 8.2 258 6.2 99090 81
2004-04-19 07:25:58 51°11.094 2°42.011 8.9 258 6.2 99090 81
2004-04-19 07:26:04 51°11.095 2°42.008 9.8 261 6.2 99080 81
2004-04-19 07:26:09 51°11.095 2°42.006 7.7 255 6.2 99080 81
2004-04-19 07:26:14 51°11.095 2°42.003 8.6 259 6.2 99090 80
2004-04-19 07:26:20 51°11.096 2°42 8.5 259 6.2 99090 80
2004-04-19 07:26:24 51°11.096 2°41.998 9.5 259 6.2 99090 80
2004-04-19 07:26:29 51°11.096 2°41.996 8.2 258 6.2 99090 80
2004-04-19 07:26:34 51°11.096 2°41.993 7.4 257 6.1 99080 80
2004-04-19 07:26:38 51°11.097 2°41.991 8 260 6.1 99080 80
2004-04-19 07:26:44 51°11.097 2°41.988 9.5 262 6.1 99070 80
2004-04-19 07:26:48 51°11.097 2°41.986 7.4 258 6.1 99070 80
2004-04-19 07:26:54 51°11.097 2°41.983 7.4 259 6.1 99080 79
2004-04-19 07:26:59 51°11.097 2°41.981 9 264 6.1 99080 79
2004-04-19 07:27:04 51°11.097 2°41.978 9.5 265 6.1 99080 79
2004-04-19 07:27:09 51°11.098 2°41.976 11.4 268 6.1 99080 79
2004-04-19 07:27:14 51°11.098 2°41.973 10.7 266 6.1 99080 80
2004-04-19 07:27:20 51°11.098 2°41.97 8.5 269 6.1 99080 80
2004-04-19 07:27:24 51°11.098 2°41.968 9.6 265 6.1 99090 79
2004-04-19 07:27:29 51°11.098 2°41.965 9.9 266 6.1 99090 79
2004-04-19 07:27:34 51°11.098 2°41.962 10.2 266 6.1 99080 80
2004-04-19 07:27:39 51°11.098 2°41.96 9.2 271 6.1 99080 80
2004-04-19 07:27:44 51°11.098 2°41.957 10 269 6.1 99070 80
2004-04-19 07:27:49 51°11.098 2°41.954 10.8 268 6.1 99070 80
2004-04-19 07:27:54 51°11.098 2°41.952 9.9 268 6.1 99080 80
2004-04-19 07:28:00 51°11.098 2°41.948 9.8 264 6.1 99080 80
2004-04-19 07:28:04 51°11.099 2°41.946 9 269 6.1 99070 80
2004-04-19 07:28:09 51°11.099 2°41.943 10.6 271 6.1 99070 80
2004-04-19 07:28:14 51°11.099 2°41.94 10.1 272 6.1 99080 80
2004-04-19 07:28:18 51°11.099 2°41.938 9.8 272 6.1 99080 80
2004-04-19 07:28:24 51°11.099 2°41.935 9.4 271 6.1 99070 80
2004-04-19 07:28:29 51°11.099 2°41.932 9.8 271 6.1 99070 80
2004-04-19 07:28:34 51°11.099 2°41.929 9.8 277 6.1 99080 80
2004-04-19 07:28:39 51°11.099 2°41.927 10.8 277 6.1 99080 80
2004-04-19 07:28:44 51°11.099 2°41.924 10.8 275 6.2 99080 80
2004-04-19 07:28:49 51°11.099 2°41.921 11.1 274 6.2 99080 80
2004-04-19 07:28:54 51°11.099 2°41.918 11.4 269 6.2 99070 80
2004-04-19 07:28:59 51°11.099 2°41.916 11.7 270 6.2 99070 80
2004-04-19 07:29:04 51°11.1 2°41.913 11.8 268 6.2 99080 80
2004-04-19 07:29:09 51°11.1 2°41.91 10.1 274 6.2 99080 80
2004-04-19 07:29:14 51°11.1 2°41.907 10.5 273 6.2 99080 80
2004-04-19 07:29:19 51°11.1 2°41.904 10.3 271 6.2 99080 80
2004-04-19 07:29:24 51°11.1 2°41.901 10.6 272 6.2 99080 80
2004-04-19 07:29:29 51°11.1 2°41.899 10.5 267 6.2 99080 80
2004-04-19 07:29:34 51°11.1 2°41.896 10.3 270 6.1 99070 79
2004-04-19 07:29:40 51°11.1 2°41.892 10.6 267 6.1 99070 79
2004-04-19 07:29:44 51°11.1 2°41.89 10.9 271 6.2 99070 79
2004-04-19 07:29:49 51°11.1 2°41.887 11.7 269 6.2 99070 79
2004-04-19 07:29:54 51°11.101 2°41.884 11.2 266 6.2 99080 80
2004-04-19 07:29:59 51°11.101 2°41.881 9.6 275 6.2 99080 80
2004-04-19 07:30:04 51°11.101 2°41.878 9.7 272 6.2 99080 80
2004-04-19 07:30:09 51°11.101 2°41.875 9.4 271 6.2 99080 80
2004-04-19 07:30:14 51°11.101 2°41.873 9.6 273 6.2 99070 80
2004-04-19 07:30:20 51°11.101 2°41.869 10.1 275 6.2 99070 80
2004-04-19 07:30:24 51°11.101 2°41.865 8.9 276 6.1 99080 80
2004-04-19 07:30:29 51°11.101 2°41.861 10.6 279 6.1 99080 80
2004-04-19 07:30:34 51°11.101 2°41.855 10.4 278 6.1 99070 79
2004-04-19 07:30:38 51°11.1 2°41.849 9.1 287 6.1 99070 79
2004-04-19 07:30:44 51°11.1 2°41.84 11.1 286 6.1 99070 80
2004-04-19 07:30:49 51°11.099 2°41.831 10.7 291 6.1 99070 80
2004-04-19 07:30:54 51°11.098 2°41.822 9.9 293 6.1 99070 80
2004-04-19 07:30:58 51°11.097 2°41.812 10.9 301 6.1 99070 80
2004-04-19 07:31:04 51°11.094 2°41.795 10.7 303 6.2 99060 80
2004-04-19 07:31:09 51°11.091 2°41.778 10.5 308 6.2 99060 80
2004-04-19 07:31:14 51°11.087 2°41.76 11.1 310 6.2 99060 80
2004-04-19 07:31:18 51°11.083 2°41.744 10.2 313 6.2 99060 80
2004-04-19 07:31:24 51°11.078 2°41.719 9.1 312 6.2 99050 80
2004-04-19 07:31:29 51°11.073 2°41.696 11.5 316 6.2 99050 80
2004-04-19 07:31:34 51°11.068 2°41.673 11.9 324 6.2 99040 80
2004-04-19 07:31:38 51°11.064 2°41.653 12.9 318 6.2 99040 80
2004-04-19 07:31:44 51°11.058 2°41.623 12.9 319 6.2 99050 80
2004-04-19 07:31:48 51°11.053 2°41.602 12.4 323 6.2 99050 80
2004-04-19 07:31:54 51°11.047 2°41.57 13.3 316 6.2 99040 80
2004-04-19 07:31:58 51°11.042 2°41.548 13 322 6.2 99040 80
2004-04-19 07:32:04 51°11.035 2°41.514 13 318 6.2 99030 80
2004-04-19 07:32:09 51°11.029 2°41.485 13.6 325 6.2 99030 80
2004-04-19 07:32:14 51°11.023 2°41.456 12.9 323 6.2 99030 80
2004-04-19 07:32:19 51°11.017 2°41.426 15.2 321 6.2 99030 80
2004-04-19 07:32:24 51°11.011 2°41.396 14.1 319 6.2 99030 80
2004-04-19 07:32:29 51°11.005 2°41.366 14.1 325 6.2 99030 80
2004-04-19 07:32:34 51°11 2°41.335 15.4 321 6.2 99040 80
2004-04-19 07:32:40 51°10.994 2°41.298 14 325 6.2 99040 80
2004-04-19 07:32:44 51°10.989 2°41.274 14.4 322 6.2 99030 80
2004-04-19 07:32:49 51°10.985 2°41.243 15.2 320 6.2 99030 80
2004-04-19 07:32:54 51°10.979 2°41.211 13.8 321 6.2 99030 80
2004-04-19 07:33:00 51°10.973 2°41.174 13.5 329 6.2 99030 80
2004-04-19 07:33:04 51°10.969 2°41.149 12.9 329 6.2 99020 80
2004-04-19 07:33:09 51°10.963 2°41.118 14.7 329 6.2 99020 80
2004-04-19 07:33:14 51°10.958 2°41.087 13.4 324 6.2 99030 80
2004-04-19 07:33:18 51°10.954 2°41.062 12.7 327 6.2 99030 80
2004-04-19 07:33:24 51°10.948 2°41.025 13.1 328 6.2 99030 80
2004-04-19 07:33:29 51°10.943 2°40.993 12.6 326 6.2 99030 80
2004-04-19 07:33:34 51°10.938 2°40.962 13.5 327 6.2 99030 80
2004-04-19 07:33:39 51°10.933 2°40.931 13.9 331 6.2 99030 80
2004-04-19 07:33:44 51°10.928 2°40.899 14.5 329 6.2 99030 80
2004-04-19 07:33:49 51°10.922 2°40.868 14.4 327 6.2 99030 80
2004-04-19 07:33:54 51°10.917 2°40.836 13.2 327 6.2 99030 80
2004-04-19 07:34:00 51°10.911 2°40.799 13.5 323 6.2 99030 80
2004-04-19 07:34:04 51°10.906 2°40.774 13.3 320 6.2 99040 80
2004-04-19 07:34:09 51°10.901 2°40.742 12.7 324 6.2 99040 80
2004-04-19 07:34:14 51°10.896 2°40.711 12.9 326 6.2 99030 80
2004-04-19 07:34:18 51°10.891 2°40.686 11.8 327 6.2 99030 80
2004-04-19 07:34:24 51°10.885 2°40.648 11.4 327 6.2 99030 79
2004-04-19 07:34:30 51°10.878 2°40.61 13.5 330 6.2 99030 79
2004-04-19 07:34:34 51°10.874 2°40.585 14 325 6.2 99040 79
2004-04-19 07:34:39 51°10.869 2°40.553 14.5 327 6.2 99040 79
2004-04-19 07:34:44 51°10.863 2°40.521 13 326 6.2 99040 79
2004-04-19 07:34:49 51°10.858 2°40.49 14.4 330 6.2 99040 79
2004-04-19 07:34:54 51°10.853 2°40.458 14.8 328 6.2 99040 80
2004-04-19 07:35:00 51°10.847 2°40.42 15.4 323 6.2 99040 80
2004-04-19 07:35:04 51°10.842 2°40.395 13.4 324 6.2 99030 79
2004-04-19 07:35:08 51°10.838 2°40.37 14.6 327 6.2 99030 79
2004-04-19 07:35:14 51°10.832 2°40.332 14.4 327 6.2 99030 79
2004-04-19 07:35:18 51°10.827 2°40.307 13.3 333 6.2 99030 79
2004-04-19 07:35:25 51°10.819 2°40.263 14.2 332 6.2 99030 79
2004-04-19 07:35:29 51°10.815 2°40.238 13.9 329 6.2 99030 79
2004-04-19 07:35:34 51°10.81 2°40.206 14.9 329 6.2 99040 80
2004-04-19 07:35:40 51°10.804 2°40.168 14.5 330 6.2 99040 80
2004-04-19 07:35:44 51°10.799 2°40.143 13.7 329 6.2 99040 80
2004-04-19 07:35:48 51°10.795 2°40.118 15.1 330 6.2 99040 80
2004-04-19 07:35:54 51°10.788 2°40.08 15.7 329 6.2 99030 80
2004-04-19 07:35:58 51°10.784 2°40.055 14.4 327 6.2 99030 80
2004-04-19 07:36:04 51°10.778 2°40.017 14 329 6.2 99030 79
2004-04-19 07:36:09 51°10.773 2°39.986 13.7 322 6.2 99030 79
2004-04-19 07:36:14 51°10.767 2°39.954 13.5 329 6.2 99030 80
2004-04-19 07:36:19 51°10.762 2°39.923 14.5 329 6.2 99030 80
2004-04-19 07:36:24 51°10.757 2°39.891 13.8 328 6.2 99020 80
2004-04-19 07:36:29 51°10.752 2°39.86 13.7 324 6.2 99020 80
2004-04-19 07:36:34 51°10.747 2°39.829 15 331 6.2 99030 80
2004-04-19 07:36:38 51°10.743 2°39.804 13 328 6.2 99030 80
2004-04-19 07:36:44 51°10.736 2°39.766 13.1 330 6.2 99040 80
2004-04-19 07:36:49 51°10.731 2°39.735 15.3 332 6.2 99040 80
2004-04-19 07:36:54 51°10.725 2°39.704 16.1 330 6.2 99030 80
2004-04-19 07:36:59 51°10.719 2°39.673 14.7 338 6.2 99030 80
2004-04-19 07:37:04 51°10.712 2°39.642 13.7 336 6.3 99040 80
2004-04-19 07:37:09 51°10.705 2°39.612 14.9 337 6.3 99040 80
2004-04-19 07:37:14 51°10.699 2°39.581 14 334 6.3 99040 80
2004-04-19 07:37:20 51°10.691 2°39.544 14.7 332 6.3 99040 80
2004-04-19 07:37:24 51°10.686 2°39.52 13.8 333 6.3 99030 80
2004-04-19 07:37:29 51°10.679 2°39.489 13.1 331 6.3 99030 80
2004-04-19 07:37:34 51°10.672 2°39.459 13.8 332 6.3 99030 80
2004-04-19 07:37:40 51°10.664 2°39.422 14.4 330 6.3 99030 80
2004-04-19 07:37:44 51°10.659 2°39.398 16.2 331 6.3 99030 80
2004-04-19 07:37:49 51°10.652 2°39.367 16.6 330 6.3 99030 80
2004-04-19 07:37:54 51°10.646 2°39.336 15.7 331 6.3 99040 80
2004-04-19 07:37:58 51°10.64 2°39.312 15.1 338 6.3 99040 80
2004-04-19 07:38:04 51°10.632 2°39.275 14 340 6.3 99030 80
2004-04-19 07:38:09 51°10.626 2°39.244 15.7 338 6.3 99030 80
2004-04-19 07:38:14 51°10.619 2°39.213 16.1 334 6.3 99030 80
2004-04-19 07:38:19 51°10.612 2°39.182 16.3 337 6.3 99030 80
2004-04-19 07:38:24 51°10.606 2°39.152 16.5 338 6.3 99030 80
2004-04-19 07:38:29 51°10.599 2°39.121 14.8 337 6.3 99030 80
2004-04-19 07:38:34 51°10.592 2°39.09 15.7 337 6.3 99030 80
2004-04-19 07:38:40 51°10.584 2°39.053 15.2 336 6.3 99030 80
2004-04-19 07:38:44 51°10.579 2°39.028 14.4 337 6.3 99020 80
2004-04-19 07:38:49 51°10.572 2°38.998 14.4 338 6.3 99020 80
2004-04-19 07:38:54 51°10.566 2°38.967 14.4 338 6.3 99010 79
2004-04-19 07:38:58 51°10.56 2°38.942 14.9 338 6.3 99010 79
2004-04-19 07:39:04 51°10.553 2°38.905 14 335 6.3 99030 79
2004-04-19 07:39:09 51°10.546 2°38.874 15.5 337 6.3 99030 79
2004-04-19 07:39:14 51°10.539 2°38.843 13.6 342 6.2 99040 79
2004-04-19 07:39:19 51°10.532 2°38.813 14.6 333 6.2 99040 79
2004-04-19 07:39:24 51°10.525 2°38.782 14.4 335 6.3 99040 79
2004-04-19 07:39:29 51°10.519 2°38.751 13.9 335 6.3 99040 79
2004-04-19 07:39:34 51°10.512 2°38.72 13.2 335 6.2 99030 79
2004-04-19 07:39:40 51°10.504 2°38.683 13.4 332 6.2 99030 79
2004-04-19 07:39:44 51°10.499 2°38.658 15.2 336 6.3 99040 79
2004-04-19 07:39:49 51°10.492 2°38.627 14.9 333 6.3 99040 79
2004-04-19 07:39:54 51°10.485 2°38.596 15.3 334 6.3 99030 79
2004-04-19 07:40:00 51°10.477 2°38.559 14.4 335 6.3 99030 79
2004-04-19 07:40:04 51°10.472 2°38.535 14.8 336 6.3 99030 80
2004-04-19 07:40:09 51°10.465 2°38.504 14.7 340 6.3 99030 80
2004-04-19 07:40:14 51°10.458 2°38.473 15.4 337 6.3 99030 80
2004-04-19 07:40:18 51°10.453 2°38.448 14.5 336 6.3 99030 80
2004-04-19 07:40:24 51°10.445 2°38.411 13.3 331 6.3 99030 80
2004-04-19 07:40:29 51°10.439 2°38.38 14.1 325 6.3 99030 80
2004-04-19 07:40:34 51°10.432 2°38.349 15.5 328 6.3 99030 80
2004-04-19 07:40:40 51°10.424 2°38.312 14.9 336 6.3 99030 80
2004-04-19 07:40:44 51°10.419 2°38.287 15.2 335 6.3 99030 80
2004-04-19 07:40:49 51°10.412 2°38.256 16.5 331 6.3 99030 80
2004-04-19 07:40:54 51°10.405 2°38.225 16.5 332 6.3 99030 80
2004-04-19 07:40:58 51°10.4 2°38.2 16.5 332 6.3 99030 80
2004-04-19 07:41:04 51°10.392 2°38.163 16.8 334 6.3 99030 80
2004-04-19 07:41:09 51°10.386 2°38.132 15.8 334 6.3 99030 80
2004-04-19 07:41:14 51°10.379 2°38.101 15.1 334 6.2 99030 80
2004-04-19 07:41:19 51°10.372 2°38.07 15.8 333 6.2 99030 80
2004-04-19 07:41:24 51°10.365 2°38.039 15.1 334 6.3 99020 80
2004-04-19 07:41:29 51°10.359 2°38.008 15.6 327 6.3 99020 80
2004-04-19 07:41:34 51°10.352 2°37.977 15.5 328 6.2 99020 80
2004-04-19 07:41:38 51°10.347 2°37.952 15.3 339 6.2 99020 80
2004-04-19 07:41:44 51°10.339 2°37.915 14.7 331 6.2 99020 79
2004-04-19 07:41:50 51°10.331 2°37.877 15.6 336 6.2 99020 79
2004-04-19 07:41:54 51°10.325 2°37.853 16.8 334 6.2 99020 79
2004-04-19 07:41:59 51°10.319 2°37.822 17.5 331 6.2 99020 79
2004-04-19 07:42:04 51°10.312 2°37.791 16.3 332 6.2 99030 80
2004-04-19 07:42:08 51°10.306 2°37.766 16.3 331 6.2 99030 80
2004-04-19 07:42:14 51°10.298 2°37.728 15.4 333 6.2 99020 80
2004-04-19 07:42:19 51°10.292 2°37.697 16 329 6.2 99020 80
2004-04-19 07:42:24 51°10.285 2°37.666 15.9 331 6.2 99020 80
2004-04-19 07:42:29 51°10.278 2°37.635 15.4 334 6.2 99020 80
2004-04-19 07:42:34 51°10.272 2°37.604 15.2 330 6.2 99020 80
2004-04-19 07:42:38 51°10.266 2°37.579 17 330 6.2 99020 80
2004-04-19 07:42:44 51°10.258 2°37.542 16.5 336 6.2 99040 80
2004-04-19 07:42:49 51°10.251 2°37.51 15.4 340 6.2 99040 80
2004-04-19 07:42:54 51°10.245 2°37.479 15.6 335 6.2 99020 80
2004-04-19 07:42:58 51°10.239 2°37.454 14.4 334 6.2 99020 80
2004-04-19 07:43:04 51°10.231 2°37.417 14.1 337 6.2 99020 80
2004-04-19 07:43:09 51°10.224 2°37.386 15.4 339 6.2 99020 80
2004-04-19 07:43:14 51°10.217 2°37.355 16.5 338 6.2 99020 80
2004-04-19 07:43:20 51°10.209 2°37.317 15.7 331 6.2 99020 80
2004-04-19 07:43:24 51°10.204 2°37.293 15.9 336 6.2 99030 80
2004-04-19 07:43:28 51°10.199 2°37.268 15 331 6.2 99030 80
2004-04-19 07:43:34 51°10.191 2°37.23 16.2 331 6.2 99030 80
2004-04-19 07:43:39 51°10.185 2°37.198 14.6 336 6.2 99030 80
2004-04-19 07:43:44 51°10.179 2°37.167 15.5 338 6.2 99020 80
2004-04-19 07:43:48 51°10.175 2°37.142 16 337 6.2 99020 80
2004-04-19 07:43:54 51°10.168 2°37.104 15.1 339 6.2 99030 81
2004-04-19 07:43:59 51°10.162 2°37.072 16.3 337 6.2 99030 81
2004-04-19 07:44:04 51°10.157 2°37.041 16.2 339 6.2 99010 81
2004-04-19 07:44:09 51°10.151 2°37.009 15.7 337 6.2 99010 81
2004-04-19 07:44:14 51°10.146 2°36.978 14.9 335 6.2 99030 81
2004-04-19 07:44:20 51°10.139 2°36.94 16 333 6.2 99030 81
2004-04-19 07:44:24 51°10.134 2°36.915 16.2 331 6.2 99030 81
2004-04-19 07:44:29 51°10.128 2°36.884 16.1 329 6.2 99030 81
2004-04-19 07:44:34 51°10.123 2°36.852 16.2 331 6.2 99020 80
2004-04-19 07:44:40 51°10.116 2°36.815 16.9 334 6.2 99020 80
2004-04-19 07:44:44 51°10.112 2°36.789 15.9 335 6.2 99030 80
2004-04-19 07:44:49 51°10.106 2°36.758 15.8 338 6.2 99030 80
2004-04-19 07:44:54 51°10.1 2°36.727 16.4 341 6.2 99020 80
2004-04-19 07:44:58 51°10.095 2°36.702 15 338 6.2 99020 80
2004-04-19 07:45:04 51°10.089 2°36.664 16 337 6.2 99030 80
2004-04-19 07:45:09 51°10.083 2°36.633 15.8 331 6.2 99030 80
2004-04-19 07:45:14 51°10.077 2°36.601 14.3 332 6.2 99020 80
2004-04-19 07:45:18 51°10.073 2°36.576 17.4 326 6.2 99020 80
2004-04-19 07:45:24 51°10.066 2°36.539 16.8 328 6.2 99020 80
2004-04-19 07:45:28 51°10.061 2°36.514 15.6 331 6.2 99020 80
2004-04-19 07:45:34 51°10.055 2°36.476 15.4 330 6.1 99030 80
2004-04-19 07:45:39 51°10.05 2°36.444 14.9 333 6.1 99030 80
2004-04-19 07:45:44 51°10.047 2°36.412 15.6 323 6.1 99030 80
2004-04-19 07:45:48 51°10.044 2°36.386 15 326 6.1 99030 80
2004-04-19 07:45:54 51°10.042 2°36.348 14.4 324 6.1 99030 80
2004-04-19 07:45:59 51°10.041 2°36.315 13.8 324 6.1 99030 80
2004-04-19 07:46:04 51°10.041 2°36.283 14.4 321 6.1 99030 81
2004-04-19 07:46:09 51°10.041 2°36.251 14.9 323 6.1 99030 81
2004-04-19 07:46:14 51°10.042 2°36.218 15.6 321 6.2 99020 81
2004-04-19 07:46:18 51°10.044 2°36.193 13.6 320 6.2 99020 81
2004-04-19 07:46:24 51°10.048 2°36.155 12.9 320 6.2 99040 81
2004-04-19 07:46:29 51°10.053 2°36.124 14 315 6.2 99040 81
2004-04-19 07:46:34 51°10.059 2°36.094 12.5 308 6.2 99040 81
2004-04-19 07:46:40 51°10.068 2°36.06 12 303 6.2 99040 81
2004-04-19 07:46:44 51°10.075 2°36.037 12.1 303 6.2 99030 81
2004-04-19 07:46:49 51°10.085 2°36.01 10.5 303 6.2 99030 81
2004-04-19 07:46:54 51°10.095 2°35.984 10.7 306 6.2 99030 81
2004-04-19 07:46:58 51°10.105 2°35.964 9.5 299 6.2 99030 81
2004-04-19 07:47:04 51°10.12 2°35.938 10.4 305 6.1 99040 81
2004-04-19 07:47:08 51°10.131 2°35.921 9.3 291 6.1 99040 81
2004-04-19 07:47:14 51°10.149 2°35.898 10.1 293 6.2 99060 81
2004-04-19 07:47:19 51°10.164 2°35.882 7.9 284 6.2 99060 81
2004-04-19 07:47:24 51°10.18 2°35.867 8.3 284 6.2 99060 81
2004-04-19 07:47:29 51°10.196 2°35.855 6.9 271 6.2 99060 81
2004-04-19 07:47:34 51°10.213 2°35.845 5.8 268 6.2 99070 81
2004-04-19 07:47:40 51°10.233 2°35.835 6.2 269 6.2 99070 81
2004-04-19 07:47:44 51°10.246 2°35.829 5.6 286 6.2 99080 81
2004-04-19 07:47:49 51°10.263 2°35.822 6.2 272 6.2 99080 81
2004-04-19 07:47:54 51°10.28 2°35.817 5.6 273 6.2 99080 81
2004-04-19 07:48:00 51°10.301 2°35.811 5.1 268 6.2 99080 81
2004-04-19 07:48:04 51°10.315 2°35.806 5.6 273 6.1 99090 81
2004-04-19 07:48:08 51°10.329 2°35.804 5.7 268 6.1 99090 81
2004-04-19 07:48:14 51°10.35 2°35.801 5.6 274 6.1 99080 81
2004-04-19 07:48:19 51°10.368 2°35.8 4.3 273 6.1 99080 81
2004-04-19 07:48:24 51°10.386 2°35.799 4.6 265 6.1 99090 81
2004-04-19 07:48:29 51°10.404 2°35.799 3.8 258 6.1 99090 81
2004-04-19 07:48:34 51°10.422 2°35.799 4.4 260 6.1 99090 81
2004-04-19 07:48:40 51°10.443 2°35.8 2.4 250 6.1 99090 81
2004-04-19 07:48:44 51°10.457 2°35.801 2.1 238 6.1 99090 81
2004-04-19 07:48:49 51°10.475 2°35.804 1.8 244 6.1 99090 81
2004-04-19 07:48:54 51°10.492 2°35.81 1.4 249 6.1 99090 81
2004-04-19 07:48:59 51°10.51 2°35.816 1.6 218 6.1 99090 81
2004-04-19 07:49:04 51°10.526 2°35.823 1.2 221 6.1 99090 81
2004-04-19 07:49:08 51°10.54 2°35.829 1.6 217 6.1 99090 81
2004-04-19 07:49:14 51°10.56 2°35.839 2.2 218 6.1 99090 81
2004-04-19 07:49:18 51°10.573 2°35.846 1.9 209 6.1 99090 81
2004-04-19 07:49:24 51°10.593 2°35.856 2 215 6 99090 81
2004-04-19 07:49:29 51°10.609 2°35.866 1.7 203 6 99090 81
2004-04-19 07:49:34 51°10.625 2°35.877 1.7 207 6 99090 81
2004-04-19 07:49:40 51°10.644 2°35.892 1.7 126 6 99090 81
2004-04-19 07:49:44 51°10.657 2°35.902 1.3 131 6.1 99090 81
2004-04-19 07:49:49 51°10.672 2°35.917 1.9 181 6.1 99090 81
2004-04-19 07:49:54 51°10.687 2°35.93 1.5 185 6.1 99090 81
2004-04-19 07:49:59 51°10.702 2°35.945 1 128 6.1 99090 81
2004-04-19 07:50:05 51°10.72 2°35.961 0.9 177 6.1 99090 81
2004-04-19 07:50:09 51°10.732 2°35.972 1.7 160 6.1 99090 81
2004-04-19 07:50:14 51°10.748 2°35.985 1.8 142 6.1 99090 82
2004-04-19 07:50:18 51°10.76 2°35.995 1.7 124 6.1 99090 82
2004-04-19 07:50:24 51°10.779 2°36.01 2.3 152 6.1 99100 82
2004-04-19 07:50:29 51°10.795 2°36.023 2.1 157 6.1 99100 82
2004-04-19 07:50:34 51°10.81 2°36.036 1.9 148 6.1 99100 82
2004-04-19 07:50:39 51°10.826 2°36.048 1.9 151 6.1 99100 82
2004-04-19 07:50:44 51°10.841 2°36.062 1.7 183 6.1 99100 82
2004-04-19 07:50:49 51°10.857 2°36.074 1.7 174 6.1 99100 82
2004-04-19 07:50:54 51°10.873 2°36.088 2 181 6.2 99100 82
2004-04-19 07:50:58 51°10.885 2°36.098 1.3 162 6.2 99100 82
2004-04-19 07:51:04 51°10.904 2°36.114 1.2 170 6.2 99100 82
2004-04-19 07:51:08 51°10.917 2°36.124 1.1 177 6.2 99100 82
2004-04-19 07:51:14 51°10.935 2°36.139 1.6 176 6.2 99100 81
2004-04-19 07:51:18 51°10.948 2°36.149 1.4 158 6.2 99100 81
2004-04-19 07:51:24 51°10.967 2°36.165 1.7 145 6.2 99100 82
2004-04-19 07:51:29 51°10.983 2°36.177 1.5 147 6.2 99100 82
2004-04-19 07:51:34 51°10.998 2°36.19 1.9 118 6.1 99090 81
2004-04-19 07:51:40 51°11.017 2°36.206 1.4 118 6.1 99090 81
2004-04-19 07:51:44 51°11.029 2°36.216 2.3 110 6.1 99100 82
2004-04-19 07:51:49 51°11.045 2°36.229 1.7 139 6.1 99100 82
2004-04-19 07:51:54 51°11.061 2°36.242 2 147 6.1 99100 82
2004-04-19 07:52:00 51°11.08 2°36.257 1.8 150 6.1 99100 82
2004-04-19 07:52:04 51°11.092 2°36.267 1.6 119 6.2 99100 82
2004-04-19 07:52:08 51°11.105 2°36.278 1.6 151 6.2 99100 82
2004-04-19 07:52:14 51°11.124 2°36.293 1.9 153 6.2 99100 82
2004-04-19 07:52:20 51°11.142 2°36.308 3.4 148 6.2 99100 82
2004-04-19 07:52:24 51°11.155 2°36.318 2.8 158 6.2 99100 82
2004-04-19 07:52:29 51°11.171 2°36.33 2.1 106 6.2 99100 82
2004-04-19 07:52:34 51°11.187 2°36.343 1.4 142 6.2 99090 82
2004-04-19 07:52:39 51°11.202 2°36.355 2.1 143 6.2 99090 82
2004-04-19 07:52:44 51°11.218 2°36.368 1.7 122 6.2 99100 82
2004-04-19 07:52:49 51°11.234 2°36.381 2.4 169 6.2 99100 82
2004-04-19 07:52:54 51°11.249 2°36.393 2.5 159 6.3 99090 82
2004-04-19 07:53:00 51°11.269 2°36.408 2.7 159 6.3 99090 82
2004-04-19 07:53:04 51°11.281 2°36.418 2.8 153 6.3 99100 82
2004-04-19 07:53:09 51°11.297 2°36.43 2.7 141 6.3 99100 82
2004-04-19 07:53:14 51°11.313 2°36.443 2.6 142 6.3 99100 82
2004-04-19 07:53:19 51°11.329 2°36.455 2.4 152 6.3 99100 82
2004-04-19 07:53:24 51°11.344 2°36.468 2.4 142 6.3 99100 82
2004-04-19 07:53:29 51°11.361 2°36.48 2.7 165 6.3 99100 82
2004-04-19 07:53:34 51°11.376 2°36.493 2 159 6.3 99090 82
2004-04-19 07:53:39 51°11.392 2°36.505 2.6 169 6.3 99090 82
2004-04-19 07:53:44 51°11.408 2°36.518 2.7 167 6.3 99100 82
2004-04-19 07:53:49 51°11.424 2°36.53 2.8 153 6.3 99100 82
2004-04-19 07:53:54 51°11.439 2°36.543 2.5 157 6.3 99100 82
2004-04-19 07:53:58 51°11.452 2°36.553 3 151 6.3 99100 82
2004-04-19 07:54:04 51°11.471 2°36.569 3 153 6.3 99100 82
2004-04-19 07:54:09 51°11.487 2°36.581 3 152 6.3 99100 82
2004-04-19 07:54:14 51°11.502 2°36.593 3 164 6.3 99100 82
2004-04-19 07:54:18 51°11.515 2°36.603 2.4 162 6.3 99100 82
2004-04-19 07:54:24 51°11.534 2°36.618 2.5 161 6.3 99100 82
2004-04-19 07:54:29 51°11.55 2°36.63 2.1 163 6.3 99100 82
2004-04-19 07:54:34 51°11.566 2°36.643 2.3 159 6.3 99100 82
2004-04-19 07:54:39 51°11.581 2°36.656 2.2 157 6.3 99100 82
2004-04-19 07:54:44 51°11.598 2°36.668 2.2 157 6.3 99100 82
2004-04-19 07:54:49 51°11.613 2°36.681 1.5 148 6.3 99100 82
2004-04-19 07:54:54 51°11.629 2°36.695 1.9 136 6.2 99100 82
2004-04-19 07:54:58 51°11.64 2°36.707 2 137 6.2 99100 82
2004-04-19 07:55:04 51°11.658 2°36.725 3.6 134 6.2 99100 82
2004-04-19 07:55:09 51°11.672 2°36.741 4.1 130 6.2 99100 82
2004-04-19 07:55:14 51°11.686 2°36.758 5.2 146 6.2 99100 82
2004-04-19 07:55:20 51°11.703 2°36.777 4.4 140 6.2 99100 82
2004-04-19 07:55:24 51°11.714 2°36.791 4.9 137 6.2 99100 82
2004-04-19 07:55:29 51°11.729 2°36.808 3.1 142 6.2 99100 82
2004-04-19 07:55:34 51°11.742 2°36.824 3.4 148 6.2 99100 82
2004-04-19 07:55:40 51°11.76 2°36.844 3.2 159 6.2 99100 82
2004-04-19 07:55:44 51°11.771 2°36.856 3.4 158 6.2 99100 82
2004-04-19 07:55:49 51°11.785 2°36.873 3.4 170 6.2 99100 82
2004-04-19 07:55:54 51°11.8 2°36.889 3.2 162 6.2 99100 81
2004-04-19 07:55:59 51°11.814 2°36.905 2.4 171 6.2 99100 81
2004-04-19 07:56:04 51°11.829 2°36.921 2.8 166 6.1 99100 81
2004-04-19 07:56:09 51°11.844 2°36.937 2.9 157 6.1 99100 81
2004-04-19 07:56:14 51°11.858 2°36.953 2.4 167 6.1 99100 81
2004-04-19 07:56:20 51°11.875 2°36.972 2.4 166 6.1 99100 81
2004-04-19 07:56:24 51°11.887 2°36.984 2.8 164 6.1 99100 81
2004-04-19 07:56:29 51°11.902 2°37 2.9 161 6.1 99100 81
2004-04-19 07:56:34 51°11.916 2°37.016 2.8 159 6.1 99100 81
2004-04-19 07:56:39 51°11.93 2°37.033 2.6 161 6.1 99100 81
2004-04-19 07:56:44 51°11.945 2°37.049 2.6 168 6.1 99100 82
2004-04-19 07:56:49 51°11.959 2°37.065 2.3 158 6.1 99100 82
2004-04-19 07:56:54 51°11.974 2°37.081 2.4 155 6.1 99100 82
2004-04-19 07:57:00 51°11.991 2°37.1 1.4 148 6.1 99100 82
2004-04-19 07:57:04 51°12.003 2°37.112 2.3 124 6.1 99100 82
2004-04-19 07:57:09 51°12.017 2°37.128 2.5 116 6.1 99100 82
2004-04-19 07:57:14 51°12.032 2°37.144 3.3 128 6.1 99100 82
2004-04-19 07:57:19 51°12.047 2°37.16 3.1 130 6.1 99100 82
2004-04-19 07:57:24 51°12.061 2°37.176 3.4 131 6.1 99100 82
2004-04-19 07:57:29 51°12.075 2°37.192 3.4 138 6.1 99100 82
2004-04-19 07:57:34 51°12.09 2°37.208 4 130 6.1 99100 82
2004-04-19 07:57:40 51°12.107 2°37.227 3.4 135 6.1 99100 82
2004-04-19 07:57:44 51°12.119 2°37.24 3 136 6.1 99100 82
2004-04-19 07:57:49 51°12.133 2°37.256 2.1 131 6.1 99100 82
2004-04-19 07:57:54 51°12.148 2°37.271 2.7 133 6.1 99100 82
2004-04-19 07:58:00 51°12.165 2°37.29 2.7 134 6.1 99100 82
2004-04-19 07:58:04 51°12.177 2°37.303 2.7 140 6.1 99110 82
2004-04-19 07:58:10 51°12.194 2°37.322 2.8 123 6.1 99110 82
2004-04-19 07:58:14 51°12.206 2°37.335 3.2 94 6.1 99100 81
2004-04-19 07:58:18 51°12.217 2°37.347 3 125 6.1 99100 81
2004-04-19 07:58:24 51°12.235 2°37.366 3.3 128 6.1 99100 82
2004-04-19 07:58:29 51°12.25 2°37.381 4 120 6.1 99100 82
2004-04-19 07:58:34 51°12.264 2°37.397 4 125 6.1 99100 82
2004-04-19 07:58:38 51°12.276 2°37.409 4.3 133 6.1 99100 82
2004-04-19 07:58:44 51°12.293 2°37.428 3.8 123 6.1 99110 82
2004-04-19 07:58:49 51°12.307 2°37.445 3.3 127 6.1 99110 82
2004-04-19 07:58:54 51°12.322 2°37.461 5.4 126 6.1 99100 82